Year,Month,Day,Hour,Minute,Value (Times are PST for temperature in C)
2014,06,30,00,00,14.60
2014,06,30,00,01,14.50
2014,06,30,00,02,14.50
2014,06,30,00,03,14.50
2014,06,30,00,04,14.40
2014,06,30,00,05,14.40
2014,06,30,00,06,14.40
2014,06,30,00,07,14.30
2014,06,30,00,08,14.30
2014,06,30,00,09,14.30
2014,06,30,00,10,14.20
2014,06,30,00,11,14.20
2014,06,30,00,12,14.20
2014,06,30,00,13,14.20
2014,06,30,00,14,14.20
2014,06,30,00,15,14.20
2014,06,30,00,16,14.20
2014,06,30,00,17,14.20
2014,06,30,00,18,14.10
2014,06,30,00,19,14.10
2014,06,30,00,20,14.10
2014,06,30,00,21,14.10
2014,06,30,00,22,14.10
2014,06,30,00,23,14.20
2014,06,30,00,24,14.20
2014,06,30,00,25,14.20
2014,06,30,00,26,14.20
2014,06,30,00,27,14.20
2014,06,30,00,28,14.20
2014,06,30,00,29,14.20
2014,06,30,00,30,14.20
2014,06,30,00,31,14.20
2014,06,30,00,32,14.20
2014,06,30,00,33,14.20
2014,06,30,00,34,14.10
2014,06,30,00,35,14.10
2014,06,30,00,36,14.10
2014,06,30,00,37,14.10
2014,06,30,00,38,14.00
2014,06,30,00,39,14.00
2014,06,30,00,40,14.00
2014,06,30,00,41,14.00
2014,06,30,00,42,14.00
2014,06,30,00,43,14.00
2014,06,30,00,44,14.00
2014,06,30,00,45,14.00
2014,06,30,00,46,14.00
2014,06,30,00,47,14.00
2014,06,30,00,48,14.00
2014,06,30,00,49,14.00
2014,06,30,00,50,14.00
2014,06,30,00,51,14.00
2014,06,30,00,52,14.00
2014,06,30,00,53,13.90
2014,06,30,00,54,14.00
2014,06,30,00,55,14.00
2014,06,30,00,56,14.00
2014,06,30,00,57,14.00
2014,06,30,00,58,14.00
2014,06,30,00,59,14.00
2014,06,30,01,00,14.00
2014,06,30,01,01,14.00
2014,06,30,01,02,13.90
2014,06,30,01,03,13.90
2014,06,30,01,04,13.90
2014,06,30,01,05,13.90
2014,06,30,01,06,13.80
2014,06,30,01,07,13.80
2014,06,30,01,08,13.80
2014,06,30,01,09,13.70
2014,06,30,01,10,13.70
2014,06,30,01,11,13.70
2014,06,30,01,12,13.70
2014,06,30,01,13,13.70
2014,06,30,01,14,13.70
2014,06,30,01,15,13.70
2014,06,30,01,16,13.70
2014,06,30,01,17,13.70
2014,06,30,01,18,13.60
2014,06,30,01,19,13.60
2014,06,30,01,20,13.60
2014,06,30,01,21,13.50
2014,06,30,01,22,13.50
2014,06,30,01,23,13.40
2014,06,30,01,24,13.40
2014,06,30,01,25,13.30
2014,06,30,01,26,13.30
2014,06,30,01,27,13.30
2014,06,30,01,28,13.30
2014,06,30,01,29,13.20
2014,06,30,01,30,13.20
2014,06,30,01,31,13.20
2014,06,30,01,32,13.10
2014,06,30,01,33,13.10
2014,06,30,01,34,13.10
2014,06,30,01,35,13.00
2014,06,30,01,36,13.00
2014,06,30,01,37,13.00
2014,06,30,01,38,12.90
2014,06,30,01,39,12.90
2014,06,30,01,40,12.90
2014,06,30,01,41,12.90
2014,06,30,01,42,12.80
2014,06,30,01,43,12.80
2014,06,30,01,44,12.80
2014,06,30,01,45,12.80
2014,06,30,01,46,12.80
2014,06,30,01,47,12.80
2014,06,30,01,48,12.80
2014,06,30,01,49,12.70
2014,06,30,01,50,12.70
2014,06,30,01,51,12.70
2014,06,30,01,52,12.60
2014,06,30,01,53,12.60
2014,06,30,01,54,12.60
2014,06,30,01,55,12.50
2014,06,30,01,56,12.50
2014,06,30,01,57,12.50
2014,06,30,01,58,12.50
2014,06,30,01,59,12.50
2014,06,30,02,00,12.50
2014,06,30,02,01,12.50
2014,06,30,02,02,12.40
2014,06,30,02,03,12.40
2014,06,30,02,04,12.40
2014,06,30,02,05,12.40
2014,06,30,02,06,12.40
2014,06,30,02,07,12.40
2014,06,30,02,08,12.40
2014,06,30,02,09,12.40
2014,06,30,02,10,12.40
2014,06,30,02,11,12.40
2014,06,30,02,12,12.40
2014,06,30,02,13,12.40
2014,06,30,02,14,12.40
2014,06,30,02,15,12.40
2014,06,30,02,16,12.40
2014,06,30,02,17,12.40
2014,06,30,02,18,12.40
2014,06,30,02,19,12.40
2014,06,30,02,20,12.40
2014,06,30,02,21,12.40
2014,06,30,02,22,12.40
2014,06,30,02,23,12.40
2014,06,30,02,24,12.40
2014,06,30,02,25,12.40
2014,06,30,02,26,12.40
2014,06,30,02,27,12.40
2014,06,30,02,28,12.40
2014,06,30,02,29,12.40
2014,06,30,02,30,12.30
2014,06,30,02,31,12.30
2014,06,30,02,32,12.30
2014,06,30,02,33,12.30
2014,06,30,02,34,12.30
2014,06,30,02,35,12.30
2014,06,30,02,36,12.30
2014,06,30,02,37,12.30
2014,06,30,02,38,12.30
2014,06,30,02,39,12.30
2014,06,30,02,40,12.30
2014,06,30,02,41,12.20
2014,06,30,02,42,12.20
2014,06,30,02,43,12.10
2014,06,30,02,44,12.10
2014,06,30,02,45,12.10
2014,06,30,02,46,12.00
2014,06,30,02,47,12.00
2014,06,30,02,48,12.00
2014,06,30,02,49,12.00
2014,06,30,02,50,12.00
2014,06,30,02,51,12.00
2014,06,30,02,52,12.00
2014,06,30,02,53,12.00
2014,06,30,02,54,12.00
2014,06,30,02,55,12.00
2014,06,30,02,56,12.00
2014,06,30,02,57,12.00
2014,06,30,02,58,12.00
2014,06,30,02,59,12.00
2014,06,30,03,00,12.00
2014,06,30,03,01,12.10
2014,06,30,03,02,12.10
2014,06,30,03,03,12.10
2014,06,30,03,04,12.10
2014,06,30,03,05,12.10
2014,06,30,03,06,12.10
2014,06,30,03,07,12.10
2014,06,30,03,08,12.00
2014,06,30,03,09,12.00
2014,06,30,03,10,12.00
2014,06,30,03,11,11.90
2014,06,30,03,12,11.90
2014,06,30,03,13,11.90
2014,06,30,03,14,11.90
2014,06,30,03,15,11.90
2014,06,30,03,16,11.90
2014,06,30,03,17,11.90
2014,06,30,03,18,11.90
2014,06,30,03,19,11.80
2014,06,30,03,20,11.80
2014,06,30,03,21,11.80
2014,06,30,03,22,11.80
2014,06,30,03,23,11.80
2014,06,30,03,24,11.80
2014,06,30,03,25,11.80
2014,06,30,03,26,11.80
2014,06,30,03,27,11.80
2014,06,30,03,28,11.80
2014,06,30,03,29,11.80
2014,06,30,03,30,11.80
2014,06,30,03,31,11.80
2014,06,30,03,32,11.80
2014,06,30,03,33,11.80
2014,06,30,03,34,11.80
2014,06,30,03,35,11.80
2014,06,30,03,36,11.80
2014,06,30,03,37,11.80
2014,06,30,03,38,11.80
2014,06,30,03,39,11.80
2014,06,30,03,40,11.80
2014,06,30,03,41,11.90
2014,06,30,03,42,11.90
2014,06,30,03,43,11.90
2014,06,30,03,44,11.90
2014,06,30,03,45,11.90
2014,06,30,03,46,11.90
2014,06,30,03,47,11.80
2014,06,30,03,48,11.80
2014,06,30,03,49,11.80
2014,06,30,03,50,11.80
2014,06,30,03,51,11.80
2014,06,30,03,52,11.80
2014,06,30,03,53,11.80
2014,06,30,03,54,11.80
2014,06,30,03,55,11.80
2014,06,30,03,56,11.80
2014,06,30,03,57,11.80
2014,06,30,03,58,11.80
2014,06,30,03,59,11.70
2014,06,30,04,00,11.70
2014,06,30,04,01,11.70
2014,06,30,04,02,11.60
2014,06,30,04,03,11.60
2014,06,30,04,04,11.60
2014,06,30,04,05,11.60
2014,06,30,04,06,11.60
2014,06,30,04,07,11.60
2014,06,30,04,08,11.50
2014,06,30,04,09,11.40
2014,06,30,04,10,11.40
2014,06,30,04,11,11.40
2014,06,30,04,12,11.40
2014,06,30,04,13,11.40
2014,06,30,04,14,11.40
2014,06,30,04,15,11.40
2014,06,30,04,16,11.30
2014,06,30,04,17,11.30
2014,06,30,04,18,11.30
2014,06,30,04,19,11.30
2014,06,30,04,20,11.30
2014,06,30,04,21,11.30
2014,06,30,04,22,11.30
2014,06,30,04,23,11.30
2014,06,30,04,24,11.30
2014,06,30,04,25,11.30
2014,06,30,04,26,11.30
2014,06,30,04,27,11.20
2014,06,30,04,28,11.20
2014,06,30,04,29,11.20
2014,06,30,04,30,11.20
2014,06,30,04,31,11.20
2014,06,30,04,32,11.20
2014,06,30,04,33,11.20
2014,06,30,04,34,11.20
2014,06,30,04,35,11.20
2014,06,30,04,36,11.20
2014,06,30,04,37,11.20
2014,06,30,04,38,11.20
2014,06,30,04,39,11.20
2014,06,30,04,40,11.20
2014,06,30,04,41,11.20
2014,06,30,04,42,11.20
2014,06,30,04,43,11.20
2014,06,30,04,44,11.20
2014,06,30,04,45,11.20
2014,06,30,04,46,11.20
2014,06,30,04,47,11.20
2014,06,30,04,48,11.10
2014,06,30,04,49,11.10
2014,06,30,04,50,11.10
2014,06,30,04,51,11.10
2014,06,30,04,52,11.10
2014,06,30,04,53,11.10
2014,06,30,04,54,11.10
2014,06,30,04,55,11.10
2014,06,30,04,56,11.10
2014,06,30,04,57,11.10
2014,06,30,04,58,11.10
2014,06,30,04,59,10.90
2014,06,30,05,00,10.90
2014,06,30,05,01,10.90
2014,06,30,05,02,10.90
2014,06,30,05,03,10.90
2014,06,30,05,04,10.90
2014,06,30,05,05,10.90
2014,06,30,05,06,10.90
2014,06,30,05,07,10.90
2014,06,30,05,08,10.90
2014,06,30,05,09,10.80
2014,06,30,05,10,10.80
2014,06,30,05,11,10.70
2014,06,30,05,12,10.70
2014,06,30,05,13,10.70
2014,06,30,05,14,10.60
2014,06,30,05,15,10.60
2014,06,30,05,16,10.60
2014,06,30,05,17,10.60
2014,06,30,05,18,10.60
2014,06,30,05,19,10.60
2014,06,30,05,20,10.70
2014,06,30,05,21,10.70
2014,06,30,05,22,10.70
2014,06,30,05,23,10.70
2014,06,30,05,24,10.80
2014,06,30,05,25,10.80
2014,06,30,05,26,10.80
2014,06,30,05,27,10.80
2014,06,30,05,28,10.80
2014,06,30,05,29,10.80
2014,06,30,05,30,10.90
2014,06,30,05,31,10.90
2014,06,30,05,32,10.90
2014,06,30,05,33,10.90
2014,06,30,05,34,10.90
2014,06,30,05,35,10.90
2014,06,30,05,36,10.90
2014,06,30,05,37,10.90
2014,06,30,05,38,10.90
2014,06,30,05,39,10.90
2014,06,30,05,40,10.90
2014,06,30,05,41,10.90
2014,06,30,05,42,10.90
2014,06,30,05,43,10.90
2014,06,30,05,44,11.00
2014,06,30,05,45,11.10
2014,06,30,05,46,11.10
2014,06,30,05,47,11.10
2014,06,30,05,48,11.10
2014,06,30,05,49,11.10
2014,06,30,05,50,11.10
2014,06,30,05,51,11.10
2014,06,30,05,52,11.10
2014,06,30,05,53,11.20
2014,06,30,05,54,11.20
2014,06,30,05,55,11.20
2014,06,30,05,56,11.20
2014,06,30,05,57,11.20
2014,06,30,05,58,11.30
2014,06,30,05,59,11.30
2014,06,30,06,00,11.30
2014,06,30,06,01,11.30
2014,06,30,06,02,11.30
2014,06,30,06,03,11.40
2014,06,30,06,04,11.40
2014,06,30,06,05,11.40
2014,06,30,06,06,11.40
2014,06,30,06,07,11.40
2014,06,30,06,08,11.50
2014,06,30,06,09,11.60
2014,06,30,06,10,11.60
2014,06,30,06,11,11.70
2014,06,30,06,12,11.80
2014,06,30,06,13,11.80
2014,06,30,06,14,11.80
2014,06,30,06,15,11.90
2014,06,30,06,16,11.90
2014,06,30,06,17,12.00
2014,06,30,06,18,12.00
2014,06,30,06,19,12.00
2014,06,30,06,20,12.10
2014,06,30,06,21,12.10
2014,06,30,06,22,12.20
2014,06,30,06,23,12.20
2014,06,30,06,24,12.20
2014,06,30,06,25,12.20
2014,06,30,06,26,12.20
2014,06,30,06,27,12.30
2014,06,30,06,28,12.30
2014,06,30,06,29,12.30
2014,06,30,06,30,12.30
2014,06,30,06,31,12.30
2014,06,30,06,32,12.30
2014,06,30,06,33,12.30
2014,06,30,06,34,12.30
2014,06,30,06,35,12.30
2014,06,30,06,36,12.40
2014,06,30,06,37,12.40
2014,06,30,06,38,12.50
2014,06,30,06,39,12.50
2014,06,30,06,40,12.50
2014,06,30,06,41,12.50
2014,06,30,06,42,12.60
2014,06,30,06,43,12.60
2014,06,30,06,44,12.60
2014,06,30,06,45,12.60
2014,06,30,06,46,12.60
2014,06,30,06,47,12.60
2014,06,30,06,48,12.60
2014,06,30,06,49,12.60
2014,06,30,06,50,12.70
2014,06,30,06,51,12.70
2014,06,30,06,52,12.70
2014,06,30,06,53,12.70
2014,06,30,06,54,12.80
2014,06,30,06,55,12.80
2014,06,30,06,56,12.80
2014,06,30,06,57,12.90
2014,06,30,06,58,12.90
2014,06,30,06,59,13.00
2014,06,30,07,00,13.00
2014,06,30,07,01,13.10
2014,06,30,07,02,13.10
2014,06,30,07,03,13.20
2014,06,30,07,04,13.30
2014,06,30,07,05,13.30
2014,06,30,07,06,13.30
2014,06,30,07,07,13.30
2014,06,30,07,08,13.30
2014,06,30,07,09,13.30
2014,06,30,07,10,13.30
2014,06,30,07,11,13.30
2014,06,30,07,12,13.30
2014,06,30,07,13,13.40
2014,06,30,07,14,13.40
2014,06,30,07,15,13.50
2014,06,30,07,16,13.50
2014,06,30,07,17,13.60
2014,06,30,07,18,13.60
2014,06,30,07,19,13.70
2014,06,30,07,20,13.70
2014,06,30,07,21,13.80
2014,06,30,07,22,13.90
2014,06,30,07,23,13.90
2014,06,30,07,24,14.00
2014,06,30,07,25,14.00
2014,06,30,07,26,14.10
2014,06,30,07,27,14.10
2014,06,30,07,28,14.20
2014,06,30,07,29,14.20
2014,06,30,07,30,14.40
2014,06,30,07,31,14.50
2014,06,30,07,32,14.50
2014,06,30,07,33,14.60
2014,06,30,07,34,14.70
2014,06,30,07,35,14.70
2014,06,30,07,36,14.80
2014,06,30,07,37,14.80
2014,06,30,07,38,14.80
2014,06,30,07,39,14.80
2014,06,30,07,40,14.90
2014,06,30,07,41,14.90
2014,06,30,07,42,15.00
2014,06,30,07,43,15.00
2014,06,30,07,44,15.10
2014,06,30,07,45,15.10
2014,06,30,07,46,15.20
2014,06,30,07,47,15.30
2014,06,30,07,48,15.30
2014,06,30,07,49,15.40
2014,06,30,07,50,15.40
2014,06,30,07,51,15.40
2014,06,30,07,52,15.40
2014,06,30,07,53,15.50
2014,06,30,07,54,15.50
2014,06,30,07,55,15.60
2014,06,30,07,56,15.60
2014,06,30,07,57,15.70
2014,06,30,07,58,15.60
2014,06,30,07,59,15.60
2014,06,30,08,00,15.50
2014,06,30,08,01,15.60
2014,06,30,08,02,15.60
2014,06,30,08,03,15.60
2014,06,30,08,04,15.70
2014,06,30,08,05,15.80
2014,06,30,08,06,15.80
2014,06,30,08,07,15.80
2014,06,30,08,08,15.80
2014,06,30,08,09,15.80
2014,06,30,08,10,15.80
2014,06,30,08,11,15.80
2014,06,30,08,12,15.80
2014,06,30,08,13,15.80
2014,06,30,08,14,15.80
2014,06,30,08,15,15.90
2014,06,30,08,16,15.90
2014,06,30,08,17,16.00
2014,06,30,08,18,16.10
2014,06,30,08,19,16.20
2014,06,30,08,20,16.20
2014,06,30,08,21,16.30
2014,06,30,08,22,16.40
2014,06,30,08,23,16.40
2014,06,30,08,24,16.40
2014,06,30,08,25,16.40
2014,06,30,08,26,16.40
2014,06,30,08,27,16.40
2014,06,30,08,28,16.40
2014,06,30,08,29,16.40
2014,06,30,08,30,16.30
2014,06,30,08,31,16.30
2014,06,30,08,32,16.30
2014,06,30,08,33,16.30
2014,06,30,08,34,16.30
2014,06,30,08,35,16.30
2014,06,30,08,36,16.40
2014,06,30,08,37,16.40
2014,06,30,08,38,16.60
2014,06,30,08,39,16.60
2014,06,30,08,40,16.70
2014,06,30,08,41,16.70
2014,06,30,08,42,16.80
2014,06,30,08,43,16.90
2014,06,30,08,44,16.90
2014,06,30,08,45,17.00
2014,06,30,08,46,17.00
2014,06,30,08,47,17.10
2014,06,30,08,48,17.20
2014,06,30,08,49,17.30
2014,06,30,08,50,17.30
2014,06,30,08,51,17.30
2014,06,30,08,52,17.30
2014,06,30,08,53,17.30
2014,06,30,08,54,17.30
2014,06,30,08,55,17.20
2014,06,30,08,56,17.10
2014,06,30,08,57,17.10
2014,06,30,08,58,17.10
2014,06,30,08,59,17.10
2014,06,30,09,00,17.20
2014,06,30,09,01,17.10
2014,06,30,09,02,17.10
2014,06,30,09,03,17.10
2014,06,30,09,04,17.00
2014,06,30,09,05,17.00
2014,06,30,09,06,17.00
2014,06,30,09,07,17.10
2014,06,30,09,08,17.20
2014,06,30,09,09,17.30
2014,06,30,09,10,17.40
2014,06,30,09,11,17.50
2014,06,30,09,12,17.50
2014,06,30,09,13,17.60
2014,06,30,09,14,17.60
2014,06,30,09,15,17.70
2014,06,30,09,16,17.70
2014,06,30,09,17,17.80
2014,06,30,09,18,17.80
2014,06,30,09,19,17.90
2014,06,30,09,20,17.90
2014,06,30,09,21,17.90
2014,06,30,09,22,18.10
2014,06,30,09,23,18.20
2014,06,30,09,24,18.20
2014,06,30,09,25,18.20
2014,06,30,09,26,18.20
2014,06,30,09,27,18.20
2014,06,30,09,28,18.20
2014,06,30,09,29,18.20
2014,06,30,09,30,18.20
2014,06,30,09,31,18.20
2014,06,30,09,32,18.20
2014,06,30,09,33,18.20
2014,06,30,09,34,18.20
2014,06,30,09,35,18.30
2014,06,30,09,36,18.40
2014,06,30,09,37,18.50
2014,06,30,09,38,18.50
2014,06,30,09,39,18.60
2014,06,30,09,40,18.70
2014,06,30,09,41,18.70
2014,06,30,09,42,18.80
2014,06,30,09,43,18.80
2014,06,30,09,44,18.90
2014,06,30,09,45,18.80
2014,06,30,09,46,18.90
2014,06,30,09,47,18.90
2014,06,30,09,48,18.80
2014,06,30,09,49,18.80
2014,06,30,09,50,18.70
2014,06,30,09,51,18.70
2014,06,30,09,52,18.70
2014,06,30,09,53,18.60
2014,06,30,09,54,18.60
2014,06,30,09,55,18.50
2014,06,30,09,56,18.50
2014,06,30,09,57,18.50
2014,06,30,09,58,18.50
2014,06,30,09,59,18.50
2014,06,30,10,00,18.40
2014,06,30,10,01,18.20
2014,06,30,10,02,18.10
2014,06,30,10,03,17.90
2014,06,30,10,04,17.80
2014,06,30,10,05,17.80
2014,06,30,10,06,17.70
2014,06,30,10,07,17.70
2014,06,30,10,08,17.70
2014,06,30,10,09,17.80
2014,06,30,10,10,17.90
2014,06,30,10,11,17.90
2014,06,30,10,12,17.90
2014,06,30,10,13,18.00
2014,06,30,10,14,18.10
2014,06,30,10,15,18.20
2014,06,30,10,16,18.20
2014,06,30,10,17,18.20
2014,06,30,10,18,18.30
2014,06,30,10,19,18.30
2014,06,30,10,20,18.30
2014,06,30,10,21,18.40
2014,06,30,10,22,18.40
2014,06,30,10,23,18.50
2014,06,30,10,24,18.60
2014,06,30,10,25,18.60
2014,06,30,10,26,18.70
2014,06,30,10,27,18.60
2014,06,30,10,28,18.60
2014,06,30,10,29,18.50
2014,06,30,10,30,18.60
2014,06,30,10,31,18.60
2014,06,30,10,32,18.60
2014,06,30,10,33,18.60
2014,06,30,10,34,18.50
2014,06,30,10,35,18.50
2014,06,30,10,36,18.50
2014,06,30,10,37,18.50
2014,06,30,10,38,18.50
2014,06,30,10,39,18.40
2014,06,30,10,40,18.40
2014,06,30,10,41,18.30
2014,06,30,10,42,18.30
2014,06,30,10,43,18.30
2014,06,30,10,44,18.40
2014,06,30,10,45,18.50
2014,06,30,10,46,18.60
2014,06,30,10,47,18.60
2014,06,30,10,48,18.80
2014,06,30,10,49,19.00
2014,06,30,10,50,19.10
2014,06,30,10,51,19.10
2014,06,30,10,52,19.10
2014,06,30,10,53,19.10
2014,06,30,10,54,19.10
2014,06,30,10,55,19.10
2014,06,30,10,56,19.10
2014,06,30,10,57,19.20
2014,06,30,10,58,19.20
2014,06,30,10,59,19.30
2014,06,30,11,00,19.40
2014,06,30,11,01,19.40
2014,06,30,11,02,19.50
2014,06,30,11,03,19.50
2014,06,30,11,04,19.50
2014,06,30,11,05,19.50
2014,06,30,11,06,19.50
2014,06,30,11,07,19.50
2014,06,30,11,08,19.50
2014,06,30,11,09,19.40
2014,06,30,11,10,19.40
2014,06,30,11,11,19.30
2014,06,30,11,12,19.30
2014,06,30,11,13,19.30
2014,06,30,11,14,19.30
2014,06,30,11,15,19.30
2014,06,30,11,16,19.40
2014,06,30,11,17,19.50
2014,06,30,11,18,19.50
2014,06,30,11,19,19.60
2014,06,30,11,20,19.60
2014,06,30,11,21,19.60
2014,06,30,11,22,19.70
2014,06,30,11,23,19.60
2014,06,30,11,24,19.60
2014,06,30,11,25,19.60
2014,06,30,11,26,19.60
2014,06,30,11,27,19.60
2014,06,30,11,28,19.70
2014,06,30,11,29,19.70
2014,06,30,11,30,19.70
2014,06,30,11,31,19.70
2014,06,30,11,32,19.70
2014,06,30,11,33,19.90
2014,06,30,11,34,19.90
2014,06,30,11,35,19.80
2014,06,30,11,36,19.90
2014,06,30,11,37,19.80
2014,06,30,11,38,19.80
2014,06,30,11,39,19.70
2014,06,30,11,40,19.70
2014,06,30,11,41,19.80
2014,06,30,11,42,19.80
2014,06,30,11,43,19.90
2014,06,30,11,44,20.00
2014,06,30,11,45,20.10
2014,06,30,11,46,20.20
2014,06,30,11,47,20.10
2014,06,30,11,48,19.90
2014,06,30,11,49,19.70
2014,06,30,11,50,19.50
2014,06,30,11,51,19.40
2014,06,30,11,52,19.20
2014,06,30,11,53,19.00
2014,06,30,11,54,18.70
2014,06,30,11,55,18.50
2014,06,30,11,56,18.40
2014,06,30,11,57,18.30
2014,06,30,11,58,18.30
2014,06,30,11,59,18.20
2014,06,30,12,00,18.20
2014,06,30,12,01,18.20
2014,06,30,12,02,18.20
2014,06,30,12,03,18.20
2014,06,30,12,04,18.20
2014,06,30,12,05,18.20
2014,06,30,12,06,18.20
2014,06,30,12,07,18.20
2014,06,30,12,08,18.20
2014,06,30,12,09,18.10
2014,06,30,12,10,18.10
2014,06,30,12,11,18.00
2014,06,30,12,12,17.80
2014,06,30,12,13,17.60
2014,06,30,12,14,17.70
2014,06,30,12,15,17.80
2014,06,30,12,16,17.90
2014,06,30,12,17,17.90
2014,06,30,12,18,17.90
2014,06,30,12,19,17.90
2014,06,30,12,20,17.90
2014,06,30,12,21,18.10
2014,06,30,12,22,18.20
2014,06,30,12,23,18.20
2014,06,30,12,24,18.20
2014,06,30,12,25,18.00
2014,06,30,12,26,17.80
2014,06,30,12,27,17.70
2014,06,30,12,28,17.80
2014,06,30,12,29,17.90
2014,06,30,12,30,18.10
2014,06,30,12,31,18.20
2014,06,30,12,32,18.20
2014,06,30,12,33,18.10
2014,06,30,12,34,18.10
2014,06,30,12,35,18.10
2014,06,30,12,36,18.20
2014,06,30,12,37,18.30
2014,06,30,12,38,18.30
2014,06,30,12,39,18.30
2014,06,30,12,40,18.30
2014,06,30,12,41,18.20
2014,06,30,12,42,18.00
2014,06,30,12,43,17.90
2014,06,30,12,44,17.70
2014,06,30,12,45,17.60
2014,06,30,12,46,17.50
2014,06,30,12,47,17.40
2014,06,30,12,48,17.30
2014,06,30,12,49,17.30
2014,06,30,12,50,17.30
2014,06,30,12,51,17.30
2014,06,30,12,52,17.20
2014,06,30,12,53,17.20
2014,06,30,12,54,17.20
2014,06,30,12,55,17.20
2014,06,30,12,56,17.40
2014,06,30,12,57,17.40
2014,06,30,12,58,17.40
2014,06,30,12,59,17.40
2014,06,30,13,00,17.40
2014,06,30,13,01,17.50
2014,06,30,13,02,17.50
2014,06,30,13,03,17.50
2014,06,30,13,04,17.70
2014,06,30,13,05,17.70
2014,06,30,13,06,17.80
2014,06,30,13,07,18.00
2014,06,30,13,08,18.20
2014,06,30,13,09,18.20
2014,06,30,13,10,18.20
2014,06,30,13,11,18.20
2014,06,30,13,12,18.20
2014,06,30,13,13,18.20
2014,06,30,13,14,18.10
2014,06,30,13,15,18.00
2014,06,30,13,16,17.90
2014,06,30,13,17,17.80
2014,06,30,13,18,17.80
2014,06,30,13,19,18.00
2014,06,30,13,20,18.10
2014,06,30,13,21,18.10
2014,06,30,13,22,18.00
2014,06,30,13,23,18.10
2014,06,30,13,24,18.20
2014,06,30,13,25,18.20
2014,06,30,13,26,18.20
2014,06,30,13,27,18.20
2014,06,30,13,28,18.20
2014,06,30,13,29,18.30
2014,06,30,13,30,18.40
2014,06,30,13,31,18.40
2014,06,30,13,32,18.50
2014,06,30,13,33,18.60
2014,06,30,13,34,18.50
2014,06,30,13,35,18.50
2014,06,30,13,36,18.70
2014,06,30,13,37,18.80
2014,06,30,13,38,18.80
2014,06,30,13,39,18.80
2014,06,30,13,40,18.80
2014,06,30,13,41,18.90
2014,06,30,13,42,19.00
2014,06,30,13,43,19.10
2014,06,30,13,44,19.20
2014,06,30,13,45,19.30
2014,06,30,13,46,19.30
2014,06,30,13,47,19.40
2014,06,30,13,48,19.30
2014,06,30,13,49,19.30
2014,06,30,13,50,19.30
2014,06,30,13,51,19.40
2014,06,30,13,52,19.50
2014,06,30,13,53,19.50
2014,06,30,13,54,19.50
2014,06,30,13,55,19.40
2014,06,30,13,56,19.40
2014,06,30,13,57,19.30
2014,06,30,13,58,19.20
2014,06,30,13,59,19.20
2014,06,30,14,00,19.10
2014,06,30,14,01,19.00
2014,06,30,14,02,19.10
2014,06,30,14,03,19.20
2014,06,30,14,04,19.30
2014,06,30,14,05,19.30
2014,06,30,14,06,19.20
2014,06,30,14,07,19.10
2014,06,30,14,08,19.10
2014,06,30,14,09,19.10
2014,06,30,14,10,19.10
2014,06,30,14,11,19.10
2014,06,30,14,12,19.00
2014,06,30,14,13,18.90
2014,06,30,14,14,19.00
2014,06,30,14,15,19.10
2014,06,30,14,16,19.10
2014,06,30,14,17,19.10
2014,06,30,14,18,19.00
2014,06,30,14,19,18.80
2014,06,30,14,20,18.70
2014,06,30,14,21,18.80
2014,06,30,14,22,18.80
2014,06,30,14,23,18.60
2014,06,30,14,24,18.40
2014,06,30,14,25,18.30
2014,06,30,14,26,18.20
2014,06,30,14,27,18.20
2014,06,30,14,28,18.20
2014,06,30,14,29,18.30
2014,06,30,14,30,18.30
2014,06,30,14,31,18.30
2014,06,30,14,32,18.30
2014,06,30,14,33,18.30
2014,06,30,14,34,18.40
2014,06,30,14,35,18.50
2014,06,30,14,36,18.60
2014,06,30,14,37,18.70
2014,06,30,14,38,18.90
2014,06,30,14,39,18.90
2014,06,30,14,40,19.00
2014,06,30,14,41,19.10
2014,06,30,14,42,19.30
2014,06,30,14,43,19.60
2014,06,30,14,44,19.90
2014,06,30,14,45,20.20
2014,06,30,14,46,20.30
2014,06,30,14,47,20.40
2014,06,30,14,48,20.50
2014,06,30,14,49,20.60
2014,06,30,14,50,20.70
2014,06,30,14,51,20.60
2014,06,30,14,52,20.60
2014,06,30,14,53,20.60
2014,06,30,14,54,20.70
2014,06,30,14,55,20.70
2014,06,30,14,56,20.70
2014,06,30,14,57,20.80
2014,06,30,14,58,21.00
2014,06,30,14,59,20.90
2014,06,30,15,00,20.70
2014,06,30,15,01,20.50
2014,06,30,15,02,20.50
2014,06,30,15,03,20.50
2014,06,30,15,04,20.60
2014,06,30,15,05,20.70
2014,06,30,15,06,20.80
2014,06,30,15,07,20.70
2014,06,30,15,08,20.70
2014,06,30,15,09,20.60
2014,06,30,15,10,20.70
2014,06,30,15,11,20.60
2014,06,30,15,12,20.60
2014,06,30,15,13,20.60
2014,06,30,15,14,20.70
2014,06,30,15,15,20.90
2014,06,30,15,16,20.90
2014,06,30,15,17,20.90
2014,06,30,15,18,20.70
2014,06,30,15,19,20.60
2014,06,30,15,20,20.50
2014,06,30,15,21,20.50
2014,06,30,15,22,20.50
2014,06,30,15,23,20.60
2014,06,30,15,24,20.80
2014,06,30,15,25,21.00
2014,06,30,15,26,21.20
2014,06,30,15,27,21.20
2014,06,30,15,28,21.30
2014,06,30,15,29,21.30
2014,06,30,15,30,21.30
2014,06,30,15,31,21.10
2014,06,30,15,32,21.00
2014,06,30,15,33,20.90
2014,06,30,15,34,20.80
2014,06,30,15,35,20.90
2014,06,30,15,36,20.90
2014,06,30,15,37,20.80
2014,06,30,15,38,20.70
2014,06,30,15,39,20.80
2014,06,30,15,40,20.80
2014,06,30,15,41,20.80
2014,06,30,15,42,20.90
2014,06,30,15,43,21.10
2014,06,30,15,44,21.10
2014,06,30,15,45,21.20
2014,06,30,15,46,21.30
2014,06,30,15,47,21.30
2014,06,30,15,48,21.30
2014,06,30,15,49,21.40
2014,06,30,15,50,21.40
2014,06,30,15,51,21.40
2014,06,30,15,52,21.50
2014,06,30,15,53,21.60
2014,06,30,15,54,21.60
2014,06,30,15,55,21.70
2014,06,30,15,56,21.80
2014,06,30,15,57,21.70
2014,06,30,15,58,21.70
2014,06,30,15,59,21.70
2014,06,30,16,00,21.70
2014,06,30,16,01,21.70
2014,06,30,16,02,21.70
2014,06,30,16,03,21.80
2014,06,30,16,04,21.90
2014,06,30,16,05,22.00
2014,06,30,16,06,22.00
2014,06,30,16,07,22.00
2014,06,30,16,08,22.00
2014,06,30,16,09,22.10
2014,06,30,16,10,22.20
2014,06,30,16,11,22.20
2014,06,30,16,12,22.20
2014,06,30,16,13,22.20
2014,06,30,16,14,22.20
2014,06,30,16,15,22.20
2014,06,30,16,16,22.20
2014,06,30,16,17,22.20
2014,06,30,16,18,22.20
2014,06,30,16,19,22.20
2014,06,30,16,20,22.30
2014,06,30,16,21,22.30
2014,06,30,16,22,22.30
2014,06,30,16,23,22.40
2014,06,30,16,24,22.50
2014,06,30,16,25,22.60
2014,06,30,16,26,22.70
2014,06,30,16,27,22.90
2014,06,30,16,28,23.00
2014,06,30,16,29,23.10
2014,06,30,16,30,23.00
2014,06,30,16,31,22.90
2014,06,30,16,32,23.00
2014,06,30,16,33,23.00
2014,06,30,16,34,22.90
2014,06,30,16,35,22.90
2014,06,30,16,36,22.90
2014,06,30,16,37,22.90
2014,06,30,16,38,23.00
2014,06,30,16,39,23.10
2014,06,30,16,40,23.10
2014,06,30,16,41,23.20
2014,06,30,16,42,23.20
2014,06,30,16,43,23.00
2014,06,30,16,44,22.90
2014,06,30,16,45,22.80
2014,06,30,16,46,22.80
2014,06,30,16,47,22.90
2014,06,30,16,48,22.90
2014,06,30,16,49,22.90
2014,06,30,16,50,22.90
2014,06,30,16,51,22.70
2014,06,30,16,52,22.60
2014,06,30,16,53,22.60
2014,06,30,16,54,22.60
2014,06,30,16,55,22.60
2014,06,30,16,56,22.70
2014,06,30,16,57,22.80
2014,06,30,16,58,22.80
2014,06,30,16,59,22.90
2014,06,30,17,00,23.00
2014,06,30,17,01,23.10
2014,06,30,17,02,23.10
2014,06,30,17,03,23.10
2014,06,30,17,04,23.10
2014,06,30,17,05,23.10
2014,06,30,17,06,23.10
2014,06,30,17,07,23.20
2014,06,30,17,08,23.20
2014,06,30,17,09,23.10
2014,06,30,17,10,23.00
2014,06,30,17,11,22.90
2014,06,30,17,12,22.90
2014,06,30,17,13,22.90
2014,06,30,17,14,22.90
2014,06,30,17,15,22.90
2014,06,30,17,16,22.90
2014,06,30,17,17,22.90
2014,06,30,17,18,22.90
2014,06,30,17,19,22.90